WA2QAO Weather Reports


time (UTC)temp
C
wind
direction
speed
KPH
gust
KPH
rain 1hr
cm
rain 24hr
cm
rain mn
cm
humidity
%
barometer
mb
20260506223240 -17 334 3.2 8.0 0.00 0.00 0.00 1019.9
20260506222737 -17 335 0.0 4.8 0.00 0.00 0.00 1019.8
20260506222232 -17 327 0.0 1.6 0.00 0.00 0.00 1019.7
20260506221731 -17 319 3.2 8.0 0.00 0.00 0.00 1019.9
20260506221229 -17 331 0.0 1.6 0.00 0.00 0.00 1019.9
20260506220726 -17 311 3.2 8.0 0.00 0.00 0.00 1019.7
20260506220220 -17 316 4.8 8.0 0.00 0.00 0.00 1020.0
20260506215717 -17 304 4.8 9.7 0.00 0.00 0.00 1019.8
20260506215213 -17 315 3.2 9.7 0.00 0.00 0.00 1019.9
20260506214710 -17 304 0.0 4.8 0.00 0.00 0.00 1019.9
20260506214207 -17 335 0.0 0.0 0.00 0.00 0.00 1019.7
20260506213705 -17 341 0.0 0.0 0.00 0.00 0.00 1019.7
20260506213202 -17 332 0.0 0.0 0.00 0.00 0.00 1019.7
20260506212659 -17 333 0.0 0.0 0.00 0.00 0.00 1019.8
20260506212154 -17 332 0.0 0.0 0.00 0.00 0.00 1019.9
20260506211650 -17 330 0.0 1.6 0.00 0.00 0.00 1020.0
20260506211147 -17 335 1.6 3.2 0.00 0.00 0.00 1019.7
20260506210644 -17 334 0.0 1.6 0.00 0.00 0.00 1019.9
20260506210140 -17 334 0.0 4.8 0.00 0.00 0.00 1019.9
20260506205638 -17 335 0.0 1.6 0.00 0.00 0.00 1019.7
20260506205132 -17 336 0.0 1.6 0.00 0.00 0.00 1019.9
20260506204631 -17 333 0.0 3.2 0.00 0.00 0.00 1019.7
20260506204127 -17 320 0.0 3.2 0.00 0.00 0.00 1019.8
20260506203626 -17 335 3.2 3.2 0.00 0.00 0.00 1019.9
20260506203122 -17 329 3.2 4.8 0.00 0.00 0.00 1019.6
20260506202620 -17 336 0.0 0.0 0.00 0.00 0.00 1019.5
20260506202116 -17 325 0.0 3.2 0.00 0.00 0.00 1019.6
20260506201613 -17 334 0.0 8.0 0.00 0.00 0.00 1019.6
20260506201109 -17 328 3.2 8.0 0.00 0.00 0.00 1019.5
20260506200606 -17 330 1.6 4.8 0.00 0.00 0.00 1019.6
20260506195559 -17 335 0.0 0.0 0.00 0.00 0.00 1019.5
20260506195056 -17 334 4.8 8.0 0.00 0.00 0.00 1019.5
20260506194554 -17 326 1.6 9.7 0.00 0.00 0.00 1019.3
20260506194049 -17 323 0.0 1.6 0.00 0.00 0.00 1019.3
20260506193547 -17 335 0.0 8.0 0.00 0.00 0.00 1019.4
20260506193045 -17 335 0.0 1.6 0.00 0.00 0.00 1019.3
20260506192541 -17 334 0.0 4.8 0.00 0.00 0.00 1019.4
20260506192037 -17 328 3.2 3.2 0.00 0.00 0.00 1019.2
20260506191534 -17 329 4.8 4.8 0.00 0.00 0.00 1019.4
20260506191030 -17 330 0.0 3.2 0.00 0.00 0.00 1019.1
20260506190527 -17 330 0.0 0.0 0.00 0.00 0.00 1019.4
20260506190024 -17 315 6.4 9.7 0.00 0.00 0.00 1019.1
20260506185521 -17 333 0.0 0.0 0.00 0.00 0.00 1019.3
20260506185018 -17 334 1.6 4.8 0.00 0.00 0.00 1019.2
20260506184515 -17 334 0.0 1.6 0.00 0.00 0.00 1019.1
20260506184012 -17 329 0.0 3.2 0.00 0.00 0.00 1019.0
20260506183508 -17 338 0.0 3.2 0.00 0.00 0.00 1019.0
20260506183006 -17 334 0.0 3.2 0.00 0.00 0.00 1018.9
20260506182502 -17 332 0.0 8.0 0.00 0.00 0.00 1019.0
20260506181959 -17 332 4.8 8.0 0.00 0.00 0.00 1019.0
20260506181457 -17 335 0.0 3.2 0.00 0.00 0.00 1019.1
20260506180954 -17 278 4.8 8.0 0.00 0.00 0.00 1019.1
20260506180450 -17 309 0.0 0.0 0.00 0.00 0.00 1019.0
20260506175947 -17 323 3.2 4.8 0.00 0.00 0.00 1019.0
20260506175444 -17 335 0.0 8.0 0.00 0.00 0.00 1019.0
20260506174940 -17 328 0.0 3.2 0.00 0.00 0.00 1018.9
20260506174438 -17 335 0.0 9.7 0.00 0.00 0.00 1018.8
20260506173934 -17 329 1.6 3.2 0.00 0.00 0.00 1019.0
20260506173432 -17 332 3.2 4.8 0.00 0.00 0.00 1018.9
20260506172923 -17 334 1.6 4.8 0.00 0.00 0.00 1018.9
20260506172420 -17 326 0.0 0.0 0.00 0.00 0.00 1018.8
20260506171917 -17 332 1.6 8.0 0.00 0.00 0.00 1018.5
20260506171414 -17 334 4.8 4.8 0.00 0.00 0.00 1018.8
20260506170912 -17 309 3.2 8.0 0.00 0.00 0.00 1018.6
20260506170407 -17 334 1.6 8.0 0.00 0.00 0.00 1018.6
20260506165901 -17 319 4.8 9.7 0.00 0.00 0.00 1018.5
20260506165359 -17 330 0.0 3.2 0.00 0.00 0.00 1018.6
20260506164855 -17 335 6.4 9.7 0.00 0.00 0.00 1018.8
20260506164352 -17 308 4.8 8.0 0.00 0.00 0.00 1018.7
20260506163850 -17 333 0.0 9.7 0.00 0.00 0.00 1018.7
20260506163344 -17 334 0.0 0.0 0.00 0.00 0.00 1018.4
20260506162839 -17 335 0.0 0.0 0.00 0.00 0.00 1018.6
20260506162337 -17 312 0.0 1.6 0.00 0.00 0.00 1018.4
20260506161829 -17 333 0.0 3.2 0.00 0.00 0.00 1018.4
20260506161326 -17 332 0.0 1.6 0.00 0.00 0.00 1018.3
20260506160824 -17 335 0.0 0.0 0.00 0.00 0.00 1018.4
20260506160320 -17 332 0.0 0.0 0.00 0.00 0.00 1018.4
20260506155819 -17 334 0.0 1.6 0.00 0.00 0.00 1018.4
20260506155315 -17 334 0.0 1.6 0.00 0.00 0.00 1018.4
20260506153427 -17 302 1.6 3.2 0.00 0.00 0.00 1018.2
20260506152925 -17 334 0.0 0.0 0.00 0.00 0.00 1018.0
20260506152421 -17 328 0.0 0.0 0.00 0.00 0.00 1017.8
20260506151920 -17 336 0.0 3.2 0.00 0.00 0.00 1017.8
20260506151417 -17 335 0.0 0.0 0.00 0.00 0.00 1017.8
20260506150914 -17 335 0.0 0.0 0.00 0.00 0.00 1017.7
20260506150410 -17 296 0.0 0.0 0.00 0.00 0.00 1017.8
20260506145908 -17 335 0.0 0.0 0.00 0.00 0.00 1017.7
20260506145403 -17 335 0.0 0.0 0.00 0.00 0.00 1017.4
20260506144901 -17 336 0.0 0.0 0.00 0.00 0.00 1017.5
20260506144357 -17 335 0.0 0.0 0.00 0.00 0.00 1017.7
20260506143856 -17 335 0.0 0.0 0.00 0.00 0.00 1017.9
20260506143353 -17 330 0.0 0.0 0.00 0.00 0.00 1017.8
20260506142851 -17 324 0.0 0.0 0.00 0.00 0.00 1017.9
20260506142349 -17 335 0.0 0.0 0.00 0.00 0.00 1017.8
20260506141847 -17 330 0.0 0.0 0.00 0.00 0.00 1017.8
20260506141344 -17 335 0.0 0.0 0.00 0.00 0.00 1017.4
20260506140842 -17 335 0.0 0.0 0.00 0.00 0.00 1017.3
20260506140339 -17 335 0.0 0.0 0.00 0.00 0.00 1016.9
20260506135836 -17 336 0.0 0.0 0.00 0.00 0.00 1016.7
20260506135333 -17 336 0.0 0.0 0.00 0.00 0.00 1017.0
20260506134829 -17 337 0.0 0.0 0.00 0.00 0.00 1017.0
20260506134325 -17 333 0.0 0.0 0.00 0.00 0.00 1017.1
20260506133823 -17 335 0.0 0.0 0.00 0.00 0.00 1017.0
20260506133319 -17 334 0.0 0.0 0.00 0.00 0.00 1016.7
20260506132816 -17 334 0.0 0.0 0.00 0.00 0.00 1017.3
20260506132313 -17 333 0.0 0.0 0.00 0.00 0.00 1017.4
20260506131811 -17 318 0.0 1.6 0.00 0.00 0.00 1017.2
20260506131307 -17 332 0.0 3.2 0.00 0.00 0.00 1017.3
20260506130804 -17 335 0.0 0.0 0.00 0.00 0.00 1017.1
20260506130301 -17 334 0.0 0.0 0.00 0.00 0.00 1016.9
20260506125759 -17 334 0.0 0.0 0.00 0.00 0.00 1017.1
20260506125257 -17 318 0.0 1.6 0.00 0.00 0.00 1017.0
20260506124755 -17 328 1.6 3.2 0.00 0.00 0.00 1017.2
20260506124252 -17 333 0.0 0.0 0.00 0.00 0.00 1017.3
20260506123749 -17 335 0.0 0.0 0.00 0.00 0.00 1017.3
20260506123248 -17 335 0.0 3.2 0.00 0.00 0.00 1017.2
20260506122744 -17 330 0.0 0.0 0.00 0.00 0.00 1017.1
20260506122241 -17 335 0.0 0.0 0.00 0.00 0.00 1016.8
20260506121740 -17 335 0.0 0.0 0.00 0.00 0.00 1016.6
20260506121236 -17 335 0.0 0.0 0.00 0.00 0.00 1016.9
20260506120733 -17 335 0.0 1.6 0.00 0.00 0.00 1016.9
20260506120231 -17 335 0.0 0.0 0.00 0.00 0.00 1016.9
20260506115729 -17 335 0.0 8.0 0.00 0.00 0.00 1017.0
20260506115227 -17 331 0.0 3.2 0.00 0.00 0.00 1016.9
20260506114724 -17 335 0.0 4.8 0.00 0.00 0.00 1016.9
20260506114222 -17 334 1.6 1.6 0.00 0.00 0.00 1016.8
20260506113720 -17 334 0.0 1.6 0.00 0.00 0.00 1016.9
20260506113217 -17 327 0.0 0.0 0.00 0.00 0.00 1016.9
20260506112713 -17 334 0.0 0.0 0.00 0.00 0.00 1017.0
20260506112211 -17 327 0.0 3.2 0.00 0.00 0.00 1016.8
20260506111708 -17 304 0.0 0.0 0.00 0.00 0.00 1016.8
20260506111207 -17 334 0.0 0.0 0.00 0.00 0.00 1016.6
20260506110703 -17 335 0.0 1.6 0.00 0.00 0.00 1016.6
20260506110201 -17 335 0.0 0.0 0.00 0.00 0.00 1016.6
20260506105657 -17 335 0.0 3.2 0.00 0.00 0.00 1016.5
20260506105154 -17 332 0.0 0.0 0.00 0.00 0.00 1016.2
20260506104652 -17 335 0.0 0.0 0.00 0.00 0.00 1016.2
20260506104149 -17 333 0.0 0.0 0.00 0.00 0.00 1016.2
20260506103646 -17 335 0.0 4.8 0.00 0.00 0.00 1016.3
20260506103143 -17 330 3.2 3.2 0.00 0.00 0.00 1016.3
20260506102642 -17 335 0.0 0.0 0.00 0.00 0.00 1016.2
20260506102139 -17 334 0.0 0.0 0.00 0.00 0.00 1016.1
20260506101635 -17 335 0.0 0.0 0.00 0.00 0.00 1016.4
20260506101132 -17 335 0.0 0.0 0.00 0.00 0.00 1016.4
20260506100631 -17 335 0.0 0.0 0.00 0.00 0.00 1016.3
20260506100128 -17 330 0.0 3.2 0.00 0.00 0.00 1016.3
20260506095627 -17 334 0.0 0.0 0.00 0.00 0.00 1016.4
20260506095123 -17 335 0.0 0.0 0.00 0.00 0.00 1016.1
20260506094621 -17 334 0.0 0.0 0.00 0.00 0.00 1016.2
20260506094118 -17 335 0.0 0.0 0.00 0.00 0.00 1016.3
20260506093616 -17 335 0.0 0.0 0.00 0.00 0.00 1015.9
20260506093113 -17 335 0.0 0.0 0.00 0.00 0.00 1016.1
20260506092611 -17 335 0.0 1.6 0.00 0.00 0.00 1016.2
20260506092108 -17 335 0.0 0.0 0.00 0.00 0.00 1016.0
20260506091606 -17 335 0.0 3.2 0.00 0.00 0.00 1016.0
20260506091103 -17 333 1.6 3.2 0.00 0.00 0.00 1016.1
20260506090601 -17 335 0.0 0.0 0.00 0.00 0.00 1016.0
20260506090057 -17 334 0.0 0.0 0.00 0.00 0.00 1015.9
20260506085554 -17 335 0.0 3.2 0.00 0.00 0.00 1016.0
20260506085050 -17 334 0.0 0.0 0.00 0.00 0.00 1015.9
20260506084547 -17 328 0.0 4.8 0.00 0.00 0.00 1015.7
20260506084044 -17 335 1.6 3.2 0.00 0.00 0.00 1015.7
20260506083541 -17 335 0.0 3.2 0.00 0.00 0.00 1015.7
20260506083038 -17 335 0.0 3.2 0.00 0.00 0.00 1015.7
20260506082535 -17 334 0.0 1.6 0.00 0.00 0.00 1015.8
20260506082031 -17 334 1.6 4.8 0.00 0.00 0.00 1015.8
20260506081529 -17 324 0.0 1.6 0.00 0.00 0.00 1015.7
20260506081026 -17 329 3.2 3.2 0.00 0.00 0.00 1015.7
20260506080524 -17 334 0.0 3.2 0.00 0.00 0.00 1015.6
20260506073507 -17 334 0.0 0.0 0.00 0.00 0.00 1015.3
20260506073004 -17 335 0.0 0.0 0.00 0.00 0.00 1015.3
20260506072501 -17 334 0.0 0.0 0.00 0.00 0.00 1015.4
20260506071959 -17 335 0.0 0.0 0.00 0.00 0.00 1015.2
20260506071457 -17 335 0.0 0.0 0.00 0.00 0.00 1015.1
20260506070953 -17 335 0.0 0.0 0.00 0.00 0.00 1015.2
20260506070451 -17 335 0.0 0.0 0.00 0.00 0.00 1015.5
20260506062428 -17 335 0.0 0.0 0.00 0.00 0.00 1014.8
20260506061924 -17 334 1.6 3.2 0.00 0.00 0.00 1014.8
20260506061421 -17 335 0.0 1.6 0.00 0.00 0.00 1015.0
20260506060919 -17 335 0.0 1.6 0.00 0.00 0.00 1015.0
20260506060417 -17 334 0.0 0.0 0.00 0.00 0.00 1015.1
20260506051348 -17 335 0.0 0.0 0.00 0.00 0.00 1014.8
20260506050846 -17 335 0.0 3.2 0.00 0.00 0.00 1014.8
20260506050343 -17 332 0.0 1.6 0.00 0.00 0.00 1014.9
20260506044833 -17 335 0.0 0.0 0.00 0.00 0.00 1014.6
20260506044331 -17 335 0.0 0.0 0.00 0.00 0.00 1014.6
20260506043828 -17 334 0.0 0.0 0.00 0.00 0.00 1014.7
20260506043325 -17 334 0.0 0.0 0.00 0.00 0.00 1014.8
20260506042824 -17 329 0.0 1.6 0.00 0.00 0.00 1014.6
20260506042322 -17 335 0.0 0.0 0.00 0.00 0.00 1014.4
20260506041821 -17 335 0.0 0.0 0.00 0.00 0.00 1014.6
20260506041317 -17 335 0.0 1.6 0.00 0.00 0.00 1014.4
20260506040815 -17 335 0.0 0.0 0.00 0.00 0.00 1014.6
20260506040312 -17 335 0.0 1.6 0.00 0.00 0.00 1014.3
20260506035808 -17 334 0.0 0.0 0.00 0.00 0.00 1014.2
20260506035306 -17 335 0.0 0.0 0.00 0.00 0.00 1014.4
20260506034803 -17 335 0.0 0.0 0.00 0.00 0.00 1014.2
20260506034300 -17 334 0.0 1.6 0.00 0.00 0.00 1014.2
20260506033756 -17 335 0.0 1.6 0.00 0.00 0.00 1014.1
20260506033253 -17 324 0.0 3.2 0.00 0.00 0.00 1014.0
20260506032750 -17 334 0.0 1.6 0.00 0.00 0.00 1014.1
20260506032247 -17 335 0.0 1.6 0.00 0.00 0.00 1014.1
20260506031744 -17 335 0.0 0.0 0.00 0.00 0.00 1014.0
20260506031241 -17 335 0.0 0.0 0.00 0.00 0.00 1013.9
20260506030739 -17 334 0.0 1.6 0.00 0.00 0.00 1013.8
20260506030237 -17 332 0.0 1.6 0.00 0.00 0.00 1013.8
20260506025733 -17 335 0.0 1.6 0.00 0.00 0.00 1013.7
20260506025230 -17 335 0.0 3.2 0.00 0.00 0.00 1013.8
20260506024727 -17 335 0.0 1.6 0.00 0.00 0.00 1013.9
20260506024223 -17 335 0.0 0.0 0.00 0.00 0.00 1013.7
20260506023720 -17 334 0.0 1.6 0.00 0.00 0.00 1013.9
20260506023217 -17 335 0.0 0.0 0.00 0.00 0.00 1013.8
20260506022714 -17 335 0.0 1.6 0.00 0.00 0.00 1013.7
20260506022212 -17 334 1.6 3.2 0.00 0.00 0.00 1013.8
20260506021709 -17 334 0.0 0.0 0.00 0.00 0.00 1013.7
20260506021206 -17 335 0.0 1.6 0.00 0.00 0.00 1013.7
20260506020703 -17 335 0.0 1.6 0.00 0.00 0.00 1013.8
20260506020201 -17 334 0.0 1.6 0.00 0.00 0.00 1013.7
20260506015658 -17 333 1.6 3.2 0.00 0.00 0.00 1013.7
20260506015156 -17 335 1.6 3.2 0.00 0.00 0.00 1013.7
20260506014653 -17 334 1.6 3.2 0.00 0.00 0.00 1013.7
20260506014148 -17 335 1.6 1.6 0.00 0.00 0.00 1013.8
20260506013646 -17 334 3.2 3.2 0.00 0.00 0.00 1013.7
20260506013143 -17 335 0.0 1.6 0.00 0.00 0.00 1013.8
20260506012639 -17 335 0.0 1.6 0.00 0.00 0.00 1013.7
20260506012136 -17 333 0.0 1.6 0.00 0.00 0.00 1013.9
20260506011634 -17 331 1.6 3.2 0.00 0.00 0.00 1013.7
20260506011130 -17 335 1.6 3.2 0.00 0.00 0.00 1013.8
20260506010629 -17 335 0.0 3.2 0.00 0.00 0.00 1013.9
20260506010125 -17 334 0.0 3.2 0.00 0.00 0.00 1013.9
20260506005622 -17 331 1.6 3.2 0.00 0.00 0.00 1013.7
20260506005118 -17 334 1.6 3.2 0.00 0.00 0.00 1013.9
20260506004615 -17 328 1.6 3.2 0.00 0.00 0.00 1013.8
20260506004113 -17 334 1.6 3.2 0.00 0.00 0.00 1013.9
20260506003609 -17 334 0.0 0.0 0.00 0.00 0.00 1013.7
20260506003105 -17 332 1.6 3.2 0.00 0.00 0.00 1013.7
20260506002601 -17 334 1.6 3.2 0.00 0.00 0.00 1013.7
20260506002057 -17 333 3.2 3.2 0.00 0.00 0.00 1013.8
20260506001553 -17 304 1.6 3.2 0.00 0.00 0.00 1013.7
20260506001050 -17 332 1.6 3.2 0.00 0.00 0.00 1013.6
20260506000548 -17 299 4.8 4.8 0.00 0.00 0.00 1013.8
20260506000045 -17 329 3.2 3.2 0.00 0.00 0.00 1013.8
20260505235543 -17 285 6.4 9.7 0.00 0.00 0.00 1013.9
20260505235040 -17 334 4.8 8.0 0.00 0.00 0.00 1014.2
20260505234537 -17 334 1.6 3.2 0.00 0.00 0.00 1014.1
20260505234033 -17 334 3.2 4.8 0.00 0.00 0.00 1013.9
20260505233531 -17 335 3.2 4.8 0.00 0.00 0.00 1014.2
20260505233028 -17 334 3.2 4.8 0.00 0.00 0.00 1013.9
20260505232526 -17 316 3.2 8.0 0.00 0.00 0.00 1014.1
20260505232023 -17 334 3.2 4.8 0.00 0.00 0.00 1014.0
20260505231520 -17 334 3.2 4.8 0.00 0.00 0.00 1014.1
20260505231019 -17 334 1.6 4.8 0.00 0.00 0.00 1014.0
20260505230516 -17 334 1.6 3.2 0.00 0.00 0.00 1014.1
20260505230012 -17 334 1.6 3.2 0.00 0.00 0.00 1014.2
20260505225509 -17 335 1.6 3.2 0.00 0.00 0.00 1014.5
20260505225005 -17 333 1.6 3.2 0.00 0.00 0.00 1014.3
20260505224502 -17 334 3.2 3.2 0.00 0.00 0.00 1014.3
20260505223959 -17 328 3.2 4.8 0.00 0.00 0.00 1014.4
20260505223456 -17 334 1.6 4.8 0.00 0.00 0.00 1014.6